Location: Flotzheim
(48.8375°N, 10.8136°E)
Time: 03:43:31
(UTC+00:00)

Cosmos 2278 Rocket - Pass Details

Date: 23 January 2021
Orbit: 840 x 847 km, 71.0° (Epoch: 26 February)

Event Time Altitude Azimuth Distance (km) Brightness Sun altitude
Rises 17:35:25 0° 163° (SSE) 3,388 5.3 -15.5°
Reaches altitude 10° 17:38:24 10° 148° (SSE) 2,460 4.4 -15.9°
Enters shadow 17:41:46 21° 111° (ESE) 1,834 3.5 -16.5°
